Time,TemperatureF,DewpointF,PressureIn,WindDirection,WindDirectionDegrees,WindSpeedMPH,WindSpeedGustMPH,Humidity,HourlyPrecipIn,Conditions,Clouds,dailyrainin,SoftwareType,DateUTC
2013-03-15 00:00:00,61.0,47.0,29.96,WSW,247,0.0,1.0,60,0.00,,,0.00,Weather View 32 v70,2013-03-15 07:00:00,
2013-03-15 00:30:00,61.0,41.1,29.96,West,270,0.0,6.0,48,0.00,,,0.00,Weather View 32 v70,2013-03-15 07:30:00,
2013-03-15 01:00:00,60.0,34.9,29.95,West,270,0.0,6.0,39,0.00,,,0.00,Weather View 32 v70,2013-03-15 08:00:00,
2013-03-15 01:30:00,58.0,-5.9,29.95,West,270,0.0,2.0,7,0.00,,,0.00,Weather View 32 v70,2013-03-15 08:30:00,
2013-03-15 02:00:00,58.0,-42.3,29.95,West,270,0.0,2.0,1,0.00,,,0.00,Weather View 32 v70,2013-03-15 09:00:00,
2013-03-15 02:30:00,57.0,-42.9,29.94,West,270,0.0,2.0,1,0.00,,,0.00,Weather View 32 v70,2013-03-15 09:30:00,
2013-03-15 03:00:00,56.0,-43.5,29.93,West,270,0.0,0.0,1,0.00,,,0.00,Weather View 32 v70,2013-03-15 10:00:00,
2013-03-15 03:30:00,55.0,-44.1,29.91,SSE,157,0.0,0.0,1,0.00,,,0.00,Weather View 32 v70,2013-03-15 10:30:00,
2013-03-15 04:00:00,54.0,-44.7,29.91,SSE,157,0.0,0.0,1,0.00,,,0.00,Weather View 32 v70,2013-03-15 11:00:00,
2013-03-15 04:30:00,54.0,-44.7,29.90,SW,225,0.0,2.0,1,0.00,,,0.00,Weather View 32 v70,2013-03-15 11:30:00,
2013-03-15 05:00:00,53.0,-45.3,29.90,SW,225,0.0,2.0,1,0.00,,,0.00,Weather View 32 v70,2013-03-15 12:00:00,
2013-03-15 05:30:00,52.0,-46.0,29.91,SW,225,0.0,0.0,1,0.00,,,0.00,Weather View 32 v70,2013-03-15 12:30:00,
2013-03-15 06:00:00,51.0,-46.6,29.91,SW,225,0.0,0.0,1,0.00,,,0.00,Weather View 32 v70,2013-03-15 13:00:00,
2013-03-15 06:30:00,52.0,-46.0,29.91,ESE,112,0.0,4.0,1,0.00,,,0.00,Weather View 32 v70,2013-03-15 13:30:00,
2013-03-15 07:00:00,52.0,-46.0,29.91,SE,135,0.0,4.0,1,0.00,,,0.00,Weather View 32 v70,2013-03-15 14:00:00,
2013-03-15 07:30:00,50.0,-47.2,29.91,ESE,112,0.0,0.0,1,0.00,,,0.00,Weather View 32 v70,2013-03-15 14:30:00,
2013-03-15 08:00:00,52.0,-46.0,29.93,SSW,202,0.0,3.0,1,0.00,,,0.00,Weather View 32 v70,2013-03-15 15:00:00,
2013-03-15 08:30:00,55.0,-44.1,29.96,SSE,157,1.0,5.0,1,0.00,,,0.00,Weather View 32 v70,2013-03-15 15:30:00,
2013-03-15 09:00:00,56.0,-43.5,29.98,SSE,157,0.0,6.0,1,0.00,,,0.00,Weather View 32 v70,2013-03-15 16:00:00,
2013-03-15 09:30:00,59.0,-41.7,29.98,South,180,2.0,9.0,1,0.00,,,0.00,Weather View 32 v70,2013-03-15 16:30:00,
2013-03-15 10:00:00,62.0,42.0,29.99,SSE,157,3.0,11.0,48,0.00,,,0.00,Weather View 32 v70,2013-03-15 17:00:00,
2013-03-15 10:30:00,64.0,57.3,30.00,SE,135,9.0,15.0,79,0.00,,,0.00,Weather View 32 v70,2013-03-15 17:30:00,
2013-03-15 11:00:00,66.0,60.0,30.01,SSE,157,6.0,15.0,81,0.00,,,0.00,Weather View 32 v70,2013-03-15 18:00:00,
2013-03-15 11:30:00,67.0,60.2,30.01,SE,135,7.0,13.0,79,0.00,,,0.00,Weather View 32 v70,2013-03-15 18:30:00,
2013-03-15 12:00:00,70.0,62.1,30.01,SSE,157,1.0,12.0,76,0.00,,,0.00,Weather View 32 v70,2013-03-15 19:00:00,
2013-03-15 12:30:00,71.0,61.9,30.02,ESE,112,3.0,12.0,73,0.00,,,0.00,Weather View 32 v70,2013-03-15 19:30:00,
2013-03-15 13:00:00,72.0,62.4,30.00,South,180,0.0,9.0,72,0.00,,,0.00,Weather View 32 v70,2013-03-15 20:00:00,
2013-03-15 13:30:00,73.0,62.6,30.00,NNE,22,0.0,9.0,70,0.00,,,0.00,Weather View 32 v70,2013-03-15 20:30:00,
2013-03-15 14:00:00,75.0,62.4,29.98,South,180,0.0,12.0,65,0.00,,,0.00,Weather View 32 v70,2013-03-15 21:00:00,
2013-03-15 14:30:00,76.0,61.5,29.98,South,180,3.0,12.0,61,0.00,,,0.00,Weather View 32 v70,2013-03-15 21:30:00,
2013-03-15 15:00:00,77.0,60.0,29.97,ESE,112,3.0,10.0,56,0.00,,,0.00,Weather View 32 v70,2013-03-15 22:00:00,
2013-03-15 15:30:00,77.0,58.5,29.97,SSE,157,6.0,9.0,53,0.00,,,0.00,Weather View 32 v70,2013-03-15 22:30:00,
2013-03-15 16:00:00,77.0,56.9,29.96,SSE,157,5.0,9.0,50,0.00,,,0.00,Weather View 32 v70,2013-03-15 23:00:00,
2013-03-15 16:30:00,77.0,55.2,29.97,SW,225,5.0,9.0,47,0.00,,,0.00,Weather View 32 v70,2013-03-15 23:30:00,
2013-03-15 17:00:00,76.0,56.5,29.96,SW,225,0.0,7.0,51,0.00,,,0.00,Weather View 32 v70,2013-03-16 00:00:00,
2013-03-15 17:30:00,75.0,63.7,29.96,NNW,337,0.0,12.0,68,0.00,,,0.00,Weather View 32 v70,2013-03-16 00:30:00,
2013-03-15 18:00:00,75.0,63.7,29.96,NNW,337,1.0,12.0,68,0.00,,,0.00,Weather View 32 v70,2013-03-16 01:00:00,
2013-03-15 18:30:00,73.0,59.6,29.95,NNW,337,0.0,7.0,63,0.00,,,0.00,Weather View 32 v70,2013-03-16 01:30:00,
2013-03-15 19:00:00,71.0,60.7,29.94,NNW,337,0.0,7.0,70,0.00,,,0.00,Weather View 32 v70,2013-03-16 02:00:00,
2013-03-15 19:30:00,69.0,61.1,29.93,WNW,292,4.0,7.0,76,0.00,,,0.00,Weather View 32 v70,2013-03-16 02:30:00,
2013-03-15 20:00:00,67.0,61.6,29.93,NW,315,6.0,9.0,83,0.00,,,0.00,Weather View 32 v70,2013-03-16 03:00:00,
2013-03-15 20:30:00,66.0,60.7,29.93,NW,315,2.0,9.0,83,0.00,,,0.00,Weather View 32 v70,2013-03-16 03:30:00,
2013-03-15 21:00:00,64.0,59.7,29.92,NW,315,4.0,9.0,86,0.00,,,0.00,Weather View 32 v70,2013-03-16 04:00:00,
2013-03-15 21:30:00,62.0,57.4,29.92,NW,315,0.0,6.0,85,0.00,,,0.00,Weather View 32 v70,2013-03-16 04:30:00,
2013-03-15 22:00:00,61.0,55.5,29.91,WNW,292,0.0,6.0,82,0.00,,,0.00,Weather View 32 v70,2013-03-16 05:00:00,
2013-03-15 22:30:00,61.0,55.5,29.91,WNW,292,0.0,6.0,82,0.00,,,0.00,Weather View 32 v70,2013-03-16 05:30:00,
2013-03-15 23:00:00,59.0,50.3,29.90,NNW,337,0.0,6.0,73,0.00,,,0.00,Weather View 32 v70,2013-03-16 06:00:00,
2013-03-15 23:30:00,59.0,50.3,29.89,NNW,337,0.0,0.0,73,0.00,,,0.00,Weather View 32 v70,2013-03-16 06:30:00,
2013-03-15 23:35:00,59.0,50.3,29.89,NNW,337,0.0,0.0,73,0.00,,,0.00,Weather View 32 v70,2013-03-16 06:35:00,